owner,sensor,date,latitude,longitude,vertical_datum,sea_water_practical_salinity,qcFlag 
DISL,ioos:station:DISL:DISL:1,2012-12-01T00:00:00Z,30.2513,-88.0778,6.829,30.12,1111122 
DISL,ioos:station:DISL:DISL:1,2012-12-01T00:30:00Z,30.2513,-88.0778,6.933,30.3,1111122 
DISL,ioos:station:DISL:DISL:1,2012-12-01T01:00:00Z,30.2513,-88.0778,7.04,31.42,1111122 
DISL,ioos:station:DISL:DISL:1,2012-12-01T01:30:00Z,30.2513,-88.0778,7.08,31.96,1111122 
DISL,ioos:station:DISL:DISL:1,2012-12-01T02:00:00Z,30.2513,-88.0778,7.18,32.01,1111122 
DISL,ioos:station:DISL:DISL:1,2012-12-01T02:30:00Z,30.2513,-88.0778,7.27,32.27,1111122 
DISL,ioos:station:DISL:DISL:1,2012-12-01T03:00:00Z,30.2513,-88.0778,7.39,32.28,1111122 
DISL,ioos:station:DISL:DISL:1,2012-12-01T03:30:00Z,30.2513,-88.0778,7.37,32.38,1111122 
DISL,ioos:station:DISL:DISL:1,2012-12-01T04:00:00Z,30.2513,-88.0778,7.43,32.32,1111122 
DISL,ioos:station:DISL:DISL:1,2012-12-01T04:30:00Z,30.2513,-88.0778,7.65,31.43,1111122 
DISL,ioos:station:DISL:DISL:1,2012-12-01T05:00:00Z,30.2513,-88.0778,7.45,30.13,1111122 
DISL,ioos:station:DISL:DISL:1,2012-12-01T05:30:00Z,30.2513,-88.0778,7.41,28.7,1111122 
DISL,ioos:station:DISL:DISL:1,2012-12-01T06:00:00Z,30.2513,-88.0778,7.47,26.92,1111122 
DISL,ioos:station:DISL:DISL:1,2012-12-01T06:30:00Z,30.2513,-88.0778,7.45,26.44,1111122 
DISL,ioos:station:DISL:DISL:1,2012-12-01T07:00:00Z,30.2513,-88.0778,7.31,26.18,1111122 
DISL,ioos:station:DISL:DISL:1,2012-12-01T07:30:00Z,30.2513,-88.0778,7.29,26.09,1111122 
DISL,ioos:station:DISL:DISL:1,2012-12-01T08:00:00Z,30.2513,-88.0778,7.24,26.16,1111122 
DISL,ioos:station:DISL:DISL:1,2012-12-01T08:30:00Z,30.2513,-88.0778,7.2,26.15,1111122 
DISL,ioos:station:DISL:DISL:1,2012-12-01T09:00:00Z,30.2513,-88.0778,7.06,26.1,1111122 
DISL,ioos:station:DISL:DISL:1,2012-12-01T09:30:00Z,30.2513,-88.0778,6.959,26.09,1111122 
DISL,ioos:station:DISL:DISL:1,2012-12-01T10:00:00Z,30.2513,-88.0778,6.752,26.07,1111122 
DISL,ioos:station:DISL:DISL:1,2012-12-01T10:30:00Z,30.2513,-88.0778,6.766,25.91,1111122 
DISL,ioos:station:DISL:DISL:1,2012-12-01T11:00:00Z,30.2513,-88.0778,6.68,25.85,1111122 
DISL,ioos:station:DISL:DISL:1,2012-12-01T11:30:00Z,30.2513,-88.0778,6.578,25.81,1111122 
DISL,ioos:station:DISL:DISL:1,2012-12-01T12:00:00Z,30.2513,-88.0778,6.56,25.55,1111122 
DISL,ioos:station:DISL:DISL:1,2012-12-01T12:30:00Z,30.2513,-88.0778,6.452,25.52,1111122 
DISL,ioos:station:DISL:DISL:1,2012-12-01T13:00:00Z,30.2513,-88.0778,6.407,25.42,1111122 
DISL,ioos:station:DISL:DISL:1,2012-12-01T13:30:00Z,30.2513,-88.0778,6.374,25.26,1111122 
DISL,ioos:station:DISL:DISL:1,2012-12-01T14:00:00Z,30.2513,-88.0778,6.315,25.23,1111122 
DISL,ioos:station:DISL:DISL:1,2012-12-01T14:30:00Z,30.2513,-88.0778,6.268,24.84,1111122 
DISL,ioos:station:DISL:DISL:1,2012-12-01T15:00:00Z,30.2513,-88.0778,6.231,24.64,1111122 
DISL,ioos:station:DISL:DISL:1,2012-12-01T15:30:00Z,30.2513,-88.0778,6.154,24.6,1111122 
DISL,ioos:station:DISL:DISL:1,2012-12-01T16:00:00Z,30.2513,-88.0778,6.191,24.54,1111122 
DISL,ioos:station:DISL:DISL:1,2012-12-01T16:30:00Z,30.2513,-88.0778,6.099,24.5,1111122 
DISL,ioos:station:DISL:DISL:1,2012-12-01T17:00:00Z,30.2513,-88.0778,6.143,24.5,1111122 
DISL,ioos:station:DISL:DISL:1,2012-12-01T17:30:00Z,30.2513,-88.0778,6.192,24.63,1111122 
DISL,ioos:station:DISL:DISL:1,2012-12-01T18:00:00Z,30.2513,-88.0778,6.17,25.03,1111122 
DISL,ioos:station:DISL:DISL:1,2012-12-01T18:30:00Z,30.2513,-88.0778,6.208,26.32,1111122 
DISL,ioos:station:DISL:DISL:1,2012-12-01T19:00:00Z,30.2513,-88.0778,6.27,26.93,1111122 
DISL,ioos:station:DISL:DISL:1,2012-12-01T19:30:00Z,30.2513,-88.0778,6.246,27.0,1111122 
DISL,ioos:station:DISL:DISL:1,2012-12-01T20:00:00Z,30.2513,-88.0778,6.292,27.03,1111122 
DISL,ioos:station:DISL:DISL:1,2012-12-01T20:30:00Z,30.2513,-88.0778,6.331,26.78,1111122 
DISL,ioos:station:DISL:DISL:1,2012-12-01T21:00:00Z,30.2513,-88.0778,6.394,26.68,1111122 
DISL,ioos:station:DISL:DISL:1,2012-12-01T21:30:00Z,30.2513,-88.0778,6.457,26.26,1111122 
DISL,ioos:station:DISL:DISL:1,2012-12-01T22:00:00Z,30.2513,-88.0778,6.512,26.26,1111122 
DISL,ioos:station:DISL:DISL:1,2012-12-01T22:30:00Z,30.2513,-88.0778,6.582,27.0,1111122 
DISL,ioos:station:DISL:DISL:1,2012-12-01T23:00:00Z,30.2513,-88.0778,6.659,27.39,1111122 
DISL,ioos:station:DISL:DISL:1,2012-12-01T23:30:00Z,30.2513,-88.0778,6.683,26.9,1111122 
DISL,ioos:station:DISL:DISL:1,2012-12-02T00:00:00Z,30.2513,-88.0778,6.777,29.52,1111122 
DISL,ioos:station:DISL:DISL:1,2012-12-02T00:30:00Z,30.2513,-88.0778,6.873,30.28,1111122 
DISL,ioos:station:DISL:DISL:1,2012-12-02T01:00:00Z,30.2513,-88.0778,6.939,30.45,1111122 
DISL,ioos:station:DISL:DISL:1,2012-12-02T01:30:00Z,30.2513,-88.0778,7.0,30.91,1111122 
DISL,ioos:station:DISL:DISL:1,2012-12-02T02:00:00Z,30.2513,-88.0778,7.07,31.11,1111122 
DISL,ioos:station:DISL:DISL:1,2012-12-02T02:30:00Z,30.2513,-88.0778,7.17,31.18,1111122 
DISL,ioos:station:DISL:DISL:1,2012-12-02T03:00:00Z,30.2513,-88.0778,7.24,31.18,1111122 
DISL,ioos:station:DISL:DISL:1,2012-12-02T03:30:00Z,30.2513,-88.0778,7.27,31.15,1111122 
DISL,ioos:station:DISL:DISL:1,2012-12-02T04:00:00Z,30.2513,-88.0778,7.31,31.15,1111122 
DISL,ioos:station:DISL:DISL:1,2012-12-02T04:30:00Z,30.2513,-88.0778,7.38,30.88,1111122 
DISL,ioos:station:DISL:DISL:1,2012-12-02T05:00:00Z,30.2513,-88.0778,7.38,30.81,1111122 
DISL,ioos:station:DISL:DISL:1,2012-12-02T05:30:00Z,30.2513,-88.0778,7.41,30.6,1111122 
DISL,ioos:station:DISL:DISL:1,2012-12-02T06:00:00Z,30.2513,-88.0778,7.41,30.05,1111122 
DISL,ioos:station:DISL:DISL:1,2012-12-02T06:30:00Z,30.2513,-88.0778,7.39,28.05,1111122 
DISL,ioos:station:DISL:DISL:1,2012-12-02T07:00:00Z,30.2513,-88.0778,7.34,27.47,1111122 
DISL,ioos:station:DISL:DISL:1,2012-12-02T07:30:00Z,30.2513,-88.0778,7.29,26.41,1111122 
DISL,ioos:station:DISL:DISL:1,2012-12-02T08:00:00Z,30.2513,-88.0778,7.23,26.72,1111122 
DISL,ioos:station:DISL:DISL:1,2012-12-02T08:30:00Z,30.2513,-88.0778,7.13,26.35,1111122 
DISL,ioos:station:DISL:DISL:1,2012-12-02T09:00:00Z,30.2513,-88.0778,7.07,26.28,1111122 
DISL,ioos:station:DISL:DISL:1,2012-12-02T09:30:00Z,30.2513,-88.0778,6.981,26.09,1111122 
DISL,ioos:station:DISL:DISL:1,2012-12-02T10:00:00Z,30.2513,-88.0778,6.871,25.86,1111122 
DISL,ioos:station:DISL:DISL:1,2012-12-02T10:30:00Z,30.2513,-88.0778,6.761,25.72,1111122 
DISL,ioos:station:DISL:DISL:1,2012-12-02T11:00:00Z,30.2513,-88.0778,6.645,25.29,1111122 
DISL,ioos:station:DISL:DISL:1,2012-12-02T11:30:00Z,30.2513,-88.0778,6.563,25.06,1111122 
DISL,ioos:station:DISL:DISL:1,2012-12-02T12:00:00Z,30.2513,-88.0778,6.473,25.13,1111122 
DISL,ioos:station:DISL:DISL:1,2012-12-02T12:30:00Z,30.2513,-88.0778,6.412,25.15,1111122 
DISL,ioos:station:DISL:DISL:1,2012-12-02T13:00:00Z,30.2513,-88.0778,6.325,25.21,1111122 
DISL,ioos:station:DISL:DISL:1,2012-12-02T13:30:00Z,30.2513,-88.0778,6.252,25.26,1111122 
DISL,ioos:station:DISL:DISL:1,2012-12-02T14:00:00Z,30.2513,-88.0778,6.173,25.27,1111122 
DISL,ioos:station:DISL:DISL:1,2012-12-02T14:30:00Z,30.2513,-88.0778,6.109,25.08,1111122 
DISL,ioos:station:DISL:DISL:1,2012-12-02T15:00:00Z,30.2513,-88.0778,6.04,24.58,1111122 
DISL,ioos:station:DISL:DISL:1,2012-12-02T15:30:00Z,30.2513,-88.0778,5.973,24.42,1111122 
DISL,ioos:station:DISL:DISL:1,2012-12-02T16:00:00Z,30.2513,-88.0778,5.925,24.35,1111122 
DISL,ioos:station:DISL:DISL:1,2012-12-02T16:30:00Z,30.2513,-88.0778,5.93,24.2,1111122 
DISL,ioos:station:DISL:DISL:1,2012-12-02T17:00:00Z,30.2513,-88.0778,5.901,24.17,1111122 
DISL,ioos:station:DISL:DISL:1,2012-12-02T17:30:00Z,30.2513,-88.0778,5.917,24.1,1111122 
DISL,ioos:station:DISL:DISL:1,2012-12-02T18:00:00Z,30.2513,-88.0778,5.916,24.21,1111122 
DISL,ioos:station:DISL:DISL:1,2012-12-02T18:30:00Z,30.2513,-88.0778,5.944,24.78,1111122 
DISL,ioos:station:DISL:DISL:1,2012-12-02T19:00:00Z,30.2513,-88.0778,5.958,25.28,1111122 
DISL,ioos:station:DISL:DISL:1,2012-12-02T19:30:00Z,30.2513,-88.0778,6.014,25.78,1111122 
DISL,ioos:station:DISL:DISL:1,2012-12-02T20:00:00Z,30.2513,-88.0778,6.045,25.79,1111122 
DISL,ioos:station:DISL:DISL:1,2012-12-02T20:30:00Z,30.2513,-88.0778,6.017,25.93,1111122 
DISL,ioos:station:DISL:DISL:1,2012-12-02T21:00:00Z,30.2513,-88.0778,6.115,26.11,1111122 
DISL,ioos:station:DISL:DISL:1,2012-12-02T21:30:00Z,30.2513,-88.0778,6.231,25.75,1111122 
DISL,ioos:station:DISL:DISL:1,2012-12-02T22:00:00Z,30.2513,-88.0778,6.308,25.61,1111122 
DISL,ioos:station:DISL:DISL:1,2012-12-02T22:30:00Z,30.2513,-88.0778,6.368,25.55,1111122 
DISL,ioos:station:DISL:DISL:1,2012-12-02T23:00:00Z,30.2513,-88.0778,6.461,25.35,1111122 
DISL,ioos:station:DISL:DISL:1,2012-12-02T23:30:00Z,30.2513,-88.0778,6.556,25.02,1111122 
DISL,ioos:station:DISL:DISL:1,2012-12-03T00:00:00Z,30.2513,-88.0778,6.626,26.02,1111122 
DISL,ioos:station:DISL:DISL:1,2012-12-03T00:30:00Z,30.2513,-88.0778,6.71,29.19,1111122 
DISL,ioos:station:DISL:DISL:1,2012-12-03T01:00:00Z,30.2513,-88.0778,6.795,28.95,1111122 
DISL,ioos:station:DISL:DISL:1,2012-12-03T01:30:00Z,30.2513,-88.0778,6.87,30.08,1111122 
DISL,ioos:station:DISL:DISL:1,2012-12-03T02:00:00Z,30.2513,-88.0778,6.989,30.51,1111122 
DISL,ioos:station:DISL:DISL:1,2012-12-03T02:30:00Z,30.2513,-88.0778,7.06,30.42,1111122 
DISL,ioos:station:DISL:DISL:1,2012-12-03T03:00:00Z,30.2513,-88.0778,7.15,30.33,1111122 
DISL,ioos:station:DISL:DISL:1,2012-12-03T03:30:00Z,30.2513,-88.0778,7.2,30.26,1111122 
DISL,ioos:station:DISL:DISL:1,2012-12-03T04:00:00Z,30.2513,-88.0778,7.28,30.29,1111122 
DISL,ioos:station:DISL:DISL:1,2012-12-03T04:30:00Z,30.2513,-88.0778,7.33,30.06,1111122 
DISL,ioos:station:DISL:DISL:1,2012-12-03T05:00:00Z,30.2513,-88.0778,7.34,29.7,1111122 
DISL,ioos:station:DISL:DISL:1,2012-12-03T05:30:00Z,30.2513,-88.0778,7.37,28.64,1111122 
DISL,ioos:station:DISL:DISL:1,2012-12-03T06:00:00Z,30.2513,-88.0778,7.39,27.16,1111122 
DISL,ioos:station:DISL:DISL:1,2012-12-03T06:30:00Z,30.2513,-88.0778,7.36,25.79,1111122 
DISL,ioos:station:DISL:DISL:1,2012-12-03T07:00:00Z,30.2513,-88.0778,7.32,25.64,1111122 
DISL,ioos:station:DISL:DISL:1,2012-12-03T07:30:00Z,30.2513,-88.0778,7.31,25.63,1111122 
DISL,ioos:station:DISL:DISL:1,2012-12-03T08:00:00Z,30.2513,-88.0778,7.25,25.61,1111122 
DISL,ioos:station:DISL:DISL:1,2012-12-03T08:30:00Z,30.2513,-88.0778,7.19,25.55,1111122 
DISL,ioos:station:DISL:DISL:1,2012-12-03T09:00:00Z,30.2513,-88.0778,7.1,25.47,1111122 
DISL,ioos:station:DISL:DISL:1,2012-12-03T09:30:00Z,30.2513,-88.0778,7.0,25.24,1111122 
DISL,ioos:station:DISL:DISL:1,2012-12-03T10:00:00Z,30.2513,-88.0778,6.804,25.07,1111122 
DISL,ioos:station:DISL:DISL:1,2012-12-03T10:30:00Z,30.2513,-88.0778,6.783,25.05,1111122 
DISL,ioos:station:DISL:DISL:1,2012-12-03T11:00:00Z,30.2513,-88.0778,6.665,24.63,1111122 
DISL,ioos:station:DISL:DISL:1,2012-12-03T11:30:00Z,30.2513,-88.0778,6.59,24.56,1111122 
DISL,ioos:station:DISL:DISL:1,2012-12-03T12:00:00Z,30.2513,-88.0778,6.518,24.69,1111122 
DISL,ioos:station:DISL:DISL:1,2012-12-03T12:30:00Z,30.2513,-88.0778,6.425,24.71,1111122 
DISL,ioos:station:DISL:DISL:1,2012-12-03T13:00:00Z,30.2513,-88.0778,6.409,24.74,1111122 
DISL,ioos:station:DISL:DISL:1,2012-12-03T13:30:00Z,30.2513,-88.0778,6.331,24.85,1111122 
DISL,ioos:station:DISL:DISL:1,2012-12-03T14:00:00Z,30.2513,-88.0778,6.253,24.83,1111122 
DISL,ioos:station:DISL:DISL:1,2012-12-03T14:30:00Z,30.2513,-88.0778,6.183,24.73,1111122 
DISL,ioos:station:DISL:DISL:1,2012-12-03T15:00:00Z,30.2513,-88.0778,6.127,24.34,1111122 
DISL,ioos:station:DISL:DISL:1,2012-12-03T15:30:00Z,30.2513,-88.0778,6.08,24.14,1111122 
DISL,ioos:station:DISL:DISL:1,2012-12-03T16:00:00Z,30.2513,-88.0778,6.063,24.11,1111122 
DISL,ioos:station:DISL:DISL:1,2012-12-03T16:30:00Z,30.2513,-88.0778,6.03,23.88,1111122 
DISL,ioos:station:DISL:DISL:1,2012-12-03T17:00:00Z,30.2513,-88.0778,6.065,23.83,1111122 
DISL,ioos:station:DISL:DISL:1,2012-12-03T17:30:00Z,30.2513,-88.0778,6.038,23.77,1111122 
DISL,ioos:station:DISL:DISL:1,2012-12-03T18:00:00Z,30.2513,-88.0778,6.032,24.15,1111122 
DISL,ioos:station:DISL:DISL:1,2012-12-03T18:30:00Z,30.2513,-88.0778,6.078,24.49,1111122 
DISL,ioos:station:DISL:DISL:1,2012-12-03T19:00:00Z,30.2513,-88.0778,6.081,25.2,1111122 
DISL,ioos:station:DISL:DISL:1,2012-12-03T19:30:00Z,30.2513,-88.0778,6.103,25.88,1111122 
DISL,ioos:station:DISL:DISL:1,2012-12-03T20:00:00Z,30.2513,-88.0778,6.136,25.89,1111122 
DISL,ioos:station:DISL:DISL:1,2012-12-03T20:30:00Z,30.2513,-88.0778,6.194,25.68,1111122 
DISL,ioos:station:DISL:DISL:1,2012-12-03T21:00:00Z,30.2513,-88.0778,6.25,25.89,1111122 
DISL,ioos:station:DISL:DISL:1,2012-12-03T21:30:00Z,30.2513,-88.0778,6.323,25.55,1111122 
DISL,ioos:station:DISL:DISL:1,2012-12-03T22:00:00Z,30.2513,-88.0778,6.394,25.15,1111122 
DISL,ioos:station:DISL:DISL:1,2012-12-03T22:30:00Z,30.2513,-88.0778,6.472,25.09,1111122 
DISL,ioos:station:DISL:DISL:1,2012-12-03T23:00:00Z,30.2513,-88.0778,6.547,25.87,1111122 
DISL,ioos:station:DISL:DISL:1,2012-12-03T23:30:00Z,30.2513,-88.0778,6.587,26.13,1111122 
DISL,ioos:station:DISL:DISL:1,2012-12-04T00:00:00Z,30.2513,-88.0778,6.692,29.79,1111122 
DISL,ioos:station:DISL:DISL:1,2012-12-04T00:30:00Z,30.2513,-88.0778,6.762,30.08,1111122 
DISL,ioos:station:DISL:DISL:1,2012-12-04T01:00:00Z,30.2513,-88.0778,6.875,30.59,1111122 
DISL,ioos:station:DISL:DISL:1,2012-12-04T01:30:00Z,30.2513,-88.0778,6.906,30.96,1111122 
DISL,ioos:station:DISL:DISL:1,2012-12-04T02:00:00Z,30.2513,-88.0778,7.0,31.04,1111122 
DISL,ioos:station:DISL:DISL:1,2012-12-04T02:30:00Z,30.2513,-88.0778,7.1,31.07,1111122 
DISL,ioos:station:DISL:DISL:1,2012-12-04T03:00:00Z,30.2513,-88.0778,7.11,30.89,1111122 
DISL,ioos:station:DISL:DISL:1,2012-12-04T03:30:00Z,30.2513,-88.0778,7.21,31.06,1111122 
DISL,ioos:station:DISL:DISL:1,2012-12-04T04:00:00Z,30.2513,-88.0778,7.3,31.11,1111122 
DISL,ioos:station:DISL:DISL:1,2012-12-04T04:30:00Z,30.2513,-88.0778,7.33,31.15,1111122 
DISL,ioos:station:DISL:DISL:1,2012-12-04T05:00:00Z,30.2513,-88.0778,7.37,31.12,1111122 
DISL,ioos:station:DISL:DISL:1,2012-12-04T05:30:00Z,30.2513,-88.0778,7.41,30.95,1111122 
DISL,ioos:station:DISL:DISL:1,2012-12-04T06:00:00Z,30.2513,-88.0778,7.44,30.35,1111122 
DISL,ioos:station:DISL:DISL:1,2012-12-04T06:30:00Z,30.2513,-88.0778,7.41,30.4,1111122 
DISL,ioos:station:DISL:DISL:1,2012-12-04T07:00:00Z,30.2513,-88.0778,7.44,29.34,1111122 
DISL,ioos:station:DISL:DISL:1,2012-12-04T07:30:00Z,30.2513,-88.0778,7.44,27.6,1111122 
DISL,ioos:station:DISL:DISL:1,2012-12-04T08:00:00Z,30.2513,-88.0778,7.42,27.25,1111122 
DISL,ioos:station:DISL:DISL:1,2012-12-04T08:30:00Z,30.2513,-88.0778,7.37,26.67,1111122 
DISL,ioos:station:DISL:DISL:1,2012-12-04T09:00:00Z,30.2513,-88.0778,7.34,25.73,1111122 
DISL,ioos:station:DISL:DISL:1,2012-12-04T09:30:00Z,30.2513,-88.0778,7.22,26.64,1111122 
DISL,ioos:station:DISL:DISL:1,2012-12-04T10:00:00Z,30.2513,-88.0778,7.19,26.26,1111122 
DISL,ioos:station:DISL:DISL:1,2012-12-04T10:30:00Z,30.2513,-88.0778,7.14,26.25,1111122 
DISL,ioos:station:DISL:DISL:1,2012-12-04T11:00:00Z,30.2513,-88.0778,7.06,26.09,1111122 
DISL,ioos:station:DISL:DISL:1,2012-12-04T11:30:00Z,30.2513,-88.0778,6.859,25.88,1111122 
DISL,ioos:station:DISL:DISL:1,2012-12-04T12:00:00Z,30.2513,-88.0778,6.885,25.54,1111122 
DISL,ioos:station:DISL:DISL:1,2012-12-04T12:30:00Z,30.2513,-88.0778,6.812,25.58,1111122 
DISL,ioos:station:DISL:DISL:1,2012-12-04T13:00:00Z,30.2513,-88.0778,6.687,25.7,1111122 
DISL,ioos:station:DISL:DISL:1,2012-12-04T13:30:00Z,30.2513,-88.0778,6.655,25.84,1111122 
DISL,ioos:station:DISL:DISL:1,2012-12-04T14:00:00Z,30.2513,-88.0778,6.616,25.94,1111122 
DISL,ioos:station:DISL:DISL:1,2012-12-04T14:30:00Z,30.2513,-88.0778,6.559,24.72,1111122 
DISL,ioos:station:DISL:DISL:1,2012-12-04T15:00:00Z,30.2513,-88.0778,6.507,24.33,1111122 
DISL,ioos:station:DISL:DISL:1,2012-12-04T15:30:00Z,30.2513,-88.0778,6.437,24.15,1111122 
DISL,ioos:station:DISL:DISL:1,2012-12-04T16:00:00Z,30.2513,-88.0778,6.383,24.07,1111122 
DISL,ioos:station:DISL:DISL:1,2012-12-04T16:30:00Z,30.2513,-88.0778,6.39,24.01,1111122 
DISL,ioos:station:DISL:DISL:1,2012-12-04T17:00:00Z,30.2513,-88.0778,6.352,24.06,1111122 
DISL,ioos:station:DISL:DISL:1,2012-12-04T17:30:00Z,30.2513,-88.0778,6.343,23.96,1111122 
DISL,ioos:station:DISL:DISL:1,2012-12-04T18:00:00Z,30.2513,-88.0778,6.332,23.92,1111122 
DISL,ioos:station:DISL:DISL:1,2012-12-04T18:30:00Z,30.2513,-88.0778,6.298,23.94,1111122 
DISL,ioos:station:DISL:DISL:1,2012-12-04T19:00:00Z,30.2513,-88.0778,6.323,24.19,1111122 
DISL,ioos:station:DISL:DISL:1,2012-12-04T19:30:00Z,30.2513,-88.0778,6.308,25.16,1111122 
DISL,ioos:station:DISL:DISL:1,2012-12-04T20:00:00Z,30.2513,-88.0778,6.321,25.75,1111122 
DISL,ioos:station:DISL:DISL:1,2012-12-04T20:30:00Z,30.2513,-88.0778,6.353,27.04,1111122 
DISL,ioos:station:DISL:DISL:1,2012-12-04T21:00:00Z,30.2513,-88.0778,6.454,27.54,1111122 
DISL,ioos:station:DISL:DISL:1,2012-12-04T21:30:00Z,30.2513,-88.0778,6.487,27.68,1111122 
DISL,ioos:station:DISL:DISL:1,2012-12-04T22:00:00Z,30.2513,-88.0778,6.516,27.95,1111122 
DISL,ioos:station:DISL:DISL:1,2012-12-04T22:30:00Z,30.2513,-88.0778,6.54,27.8,1111122 
DISL,ioos:station:DISL:DISL:1,2012-12-04T23:00:00Z,30.2513,-88.0778,6.578,27.52,1111122 
DISL,ioos:station:DISL:DISL:1,2012-12-04T23:30:00Z,30.2513,-88.0778,6.639,27.28,1111122 
DISL,ioos:station:DISL:DISL:1,2012-12-05T00:00:00Z,30.2513,-88.0778,6.75,26.98,1111122 
DISL,ioos:station:DISL:DISL:1,2012-12-05T00:30:00Z,30.2513,-88.0778,6.877,27.2,1111122 
DISL,ioos:station:DISL:DISL:1,2012-12-05T01:00:00Z,30.2513,-88.0778,6.856,27.15,1111122 
DISL,ioos:station:DISL:DISL:1,2012-12-05T01:30:00Z,30.2513,-88.0778,6.875,26.9,1111122 
DISL,ioos:station:DISL:DISL:1,2012-12-05T02:00:00Z,30.2513,-88.0778,6.958,27.09,1111122 
DISL,ioos:station:DISL:DISL:1,2012-12-05T02:30:00Z,30.2513,-88.0778,7.05,29.14,1111122 
DISL,ioos:station:DISL:DISL:1,2012-12-05T03:00:00Z,30.2513,-88.0778,7.1,29.97,1111122 
DISL,ioos:station:DISL:DISL:1,2012-12-05T03:30:00Z,30.2513,-88.0778,7.08,30.09,1111122 
DISL,ioos:station:DISL:DISL:1,2012-12-05T04:00:00Z,30.2513,-88.0778,7.17,30.22,1111122 
DISL,ioos:station:DISL:DISL:1,2012-12-05T04:30:00Z,30.2513,-88.0778,7.2,30.18,1111122 
DISL,ioos:station:DISL:DISL:1,2012-12-05T05:00:00Z,30.2513,-88.0778,7.24,30.07,1111122 
DISL,ioos:station:DISL:DISL:1,2012-12-05T05:30:00Z,30.2513,-88.0778,7.23,29.66,1111122 
DISL,ioos:station:DISL:DISL:1,2012-12-05T06:00:00Z,30.2513,-88.0778,7.27,28.31,1111122 
DISL,ioos:station:DISL:DISL:1,2012-12-05T06:30:00Z,30.2513,-88.0778,7.19,28.53,1111122 
DISL,ioos:station:DISL:DISL:1,2012-12-05T07:00:00Z,30.2513,-88.0778,7.19,29.36,1111122 
DISL,ioos:station:DISL:DISL:1,2012-12-05T07:30:00Z,30.2513,-88.0778,7.16,28.77,1111122 
DISL,ioos:station:DISL:DISL:1,2012-12-05T08:00:00Z,30.2513,-88.0778,7.15,28.46,1111122 
DISL,ioos:station:DISL:DISL:1,2012-12-05T08:30:00Z,30.2513,-88.0778,7.11,28.3,1111122 
DISL,ioos:station:DISL:DISL:1,2012-12-05T09:00:00Z,30.2513,-88.0778,7.08,26.56,1111122 
DISL,ioos:station:DISL:DISL:1,2012-12-05T09:30:00Z,30.2513,-88.0778,7.02,26.39,1111122 
DISL,ioos:station:DISL:DISL:1,2012-12-05T10:00:00Z,30.2513,-88.0778,6.918,26.06,1111122 
DISL,ioos:station:DISL:DISL:1,2012-12-05T10:30:00Z,30.2513,-88.0778,6.864,25.79,1111122 
DISL,ioos:station:DISL:DISL:1,2012-12-05T11:00:00Z,30.2513,-88.0778,6.811,25.46,1111122 
DISL,ioos:station:DISL:DISL:1,2012-12-05T11:30:00Z,30.2513,-88.0778,6.758,23.88,1111122 
DISL,ioos:station:DISL:DISL:1,2012-12-05T12:00:00Z,30.2513,-88.0778,6.665,23.6,1111122 
DISL,ioos:station:DISL:DISL:1,2012-12-05T12:30:00Z,30.2513,-88.0778,6.571,23.19,1111122 
DISL,ioos:station:DISL:DISL:1,2012-12-05T13:00:00Z,30.2513,-88.0778,6.509,23.17,1111122 
DISL,ioos:station:DISL:DISL:1,2012-12-05T13:30:00Z,30.2513,-88.0778,6.452,22.67,1111122 
DISL,ioos:station:DISL:DISL:1,2012-12-05T14:00:00Z,30.2513,-88.0778,6.398,22.4,1111122 
DISL,ioos:station:DISL:DISL:1,2012-12-05T14:30:00Z,30.2513,-88.0778,6.331,22.2,1111122 
DISL,ioos:station:DISL:DISL:1,2012-12-05T15:00:00Z,30.2513,-88.0778,6.379,22.06,1111122 
DISL,ioos:station:DISL:DISL:1,2012-12-05T15:30:00Z,30.2513,-88.0778,6.273,22.2,1111122 
DISL,ioos:station:DISL:DISL:1,2012-12-05T16:00:00Z,30.2513,-88.0778,6.204,22.22,1111122 
DISL,ioos:station:DISL:DISL:1,2012-12-05T16:30:00Z,30.2513,-88.0778,6.21,22.21,1111122 
DISL,ioos:station:DISL:DISL:1,2012-12-05T17:00:00Z,30.2513,-88.0778,6.211,22.21,1111122 
DISL,ioos:station:DISL:DISL:1,2012-12-05T17:30:00Z,30.2513,-88.0778,6.271,22.25,1111122 
DISL,ioos:station:DISL:DISL:1,2012-12-05T18:00:00Z,30.2513,-88.0778,6.215,23.02,1111122 
DISL,ioos:station:DISL:DISL:1,2012-12-05T18:30:00Z,30.2513,-88.0778,6.265,23.25,1111122 
DISL,ioos:station:DISL:DISL:1,2012-12-05T19:00:00Z,30.2513,-88.0778,6.25,26.32,1111122 
DISL,ioos:station:DISL:DISL:1,2012-12-05T19:30:00Z,30.2513,-88.0778,6.276,27.3,1111122 
DISL,ioos:station:DISL:DISL:1,2012-12-05T20:00:00Z,30.2513,-88.0778,6.331,27.23,1111122 
DISL,ioos:station:DISL:DISL:1,2012-12-05T20:30:00Z,30.2513,-88.0778,6.323,27.48,1111122 
DISL,ioos:station:DISL:DISL:1,2012-12-05T21:00:00Z,30.2513,-88.0778,6.369,27.66,1111122 
DISL,ioos:station:DISL:DISL:1,2012-12-05T21:30:00Z,30.2513,-88.0778,6.43,27.39,1111122 
DISL,ioos:station:DISL:DISL:1,2012-12-05T22:00:00Z,30.2513,-88.0778,6.503,27.34,1111122 
DISL,ioos:station:DISL:DISL:1,2012-12-05T22:30:00Z,30.2513,-88.0778,6.558,27.23,1111122 
DISL,ioos:station:DISL:DISL:1,2012-12-05T23:00:00Z,30.2513,-88.0778,6.62,27.2,1111122 
DISL,ioos:station:DISL:DISL:1,2012-12-05T23:30:00Z,30.2513,-88.0778,6.642,27.02,1111122 
DISL,ioos:station:DISL:DISL:1,2012-12-06T00:00:00Z,30.2513,-88.0778,6.732,26.89,1111122 
DISL,ioos:station:DISL:DISL:1,2012-12-06T00:30:00Z,30.2513,-88.0778,6.767,26.42,1111122 
DISL,ioos:station:DISL:DISL:1,2012-12-06T01:00:00Z,30.2513,-88.0778,6.807,25.87,1111122 
DISL,ioos:station:DISL:DISL:1,2012-12-06T01:30:00Z,30.2513,-88.0778,6.88,26.46,1111122 
DISL,ioos:station:DISL:DISL:1,2012-12-06T02:00:00Z,30.2513,-88.0778,6.898,28.34,1111122 
DISL,ioos:station:DISL:DISL:1,2012-12-06T02:30:00Z,30.2513,-88.0778,6.966,29.06,1111122 
DISL,ioos:station:DISL:DISL:1,2012-12-06T03:00:00Z,30.2513,-88.0778,6.978,28.56,1111122 
DISL,ioos:station:DISL:DISL:1,2012-12-06T03:30:00Z,30.2513,-88.0778,7.01,30.09,1111122 
DISL,ioos:station:DISL:DISL:1,2012-12-06T04:00:00Z,30.2513,-88.0778,7.05,29.94,1111122 
DISL,ioos:station:DISL:DISL:1,2012-12-06T04:30:00Z,30.2513,-88.0778,7.06,30.66,1111122 
DISL,ioos:station:DISL:DISL:1,2012-12-06T05:00:00Z,30.2513,-88.0778,7.05,29.4,1111122 
DISL,ioos:station:DISL:DISL:1,2012-12-06T05:30:00Z,30.2513,-88.0778,7.05,30.08,1111122 
DISL,ioos:station:DISL:DISL:1,2012-12-06T06:00:00Z,30.2513,-88.0778,7.05,28.99,1111122 
DISL,ioos:station:DISL:DISL:1,2012-12-06T06:30:00Z,30.2513,-88.0778,7.04,28.57,1111122 
DISL,ioos:station:DISL:DISL:1,2012-12-06T07:00:00Z,30.2513,-88.0778,7.04,26.05,1111122 
DISL,ioos:station:DISL:DISL:1,2012-12-06T07:30:00Z,30.2513,-88.0778,6.964,25.45,1111122 
DISL,ioos:station:DISL:DISL:1,2012-12-06T08:00:00Z,30.2513,-88.0778,6.995,25.35,1111122 
DISL,ioos:station:DISL:DISL:1,2012-12-06T08:30:00Z,30.2513,-88.0778,6.987,24.09,1111122 
DISL,ioos:station:DISL:DISL:1,2012-12-06T09:00:00Z,30.2513,-88.0778,6.937,25.52,1111122 
DISL,ioos:station:DISL:DISL:1,2012-12-06T09:30:00Z,30.2513,-88.0778,6.882,25.27,1111122 
DISL,ioos:station:DISL:DISL:1,2012-12-06T10:00:00Z,30.2513,-88.0778,6.895,24.04,1111122 
DISL,ioos:station:DISL:DISL:1,2012-12-06T10:30:00Z,30.2513,-88.0778,6.865,23.96,1111122 
DISL,ioos:station:DISL:DISL:1,2012-12-06T11:00:00Z,30.2513,-88.0778,6.827,23.94,1111122 
DISL,ioos:station:DISL:DISL:1,2012-12-06T11:30:00Z,30.2513,-88.0778,6.782,23.82,1111122 
DISL,ioos:station:DISL:DISL:1,2012-12-06T12:00:00Z,30.2513,-88.0778,6.724,23.71,1111122 
DISL,ioos:station:DISL:DISL:1,2012-12-06T12:30:00Z,30.2513,-88.0778,6.675,23.6,1111122 
DISL,ioos:station:DISL:DISL:1,2012-12-06T13:00:00Z,30.2513,-88.0778,6.645,23.48,1111122 
DISL,ioos:station:DISL:DISL:1,2012-12-06T13:30:00Z,30.2513,-88.0778,6.618,23.47,1111122 
DISL,ioos:station:DISL:DISL:1,2012-12-06T14:00:00Z,30.2513,-88.0778,6.577,23.4,1111122 
DISL,ioos:station:DISL:DISL:1,2012-12-06T14:30:00Z,30.2513,-88.0778,6.524,23.38,1111122 